Location: Copper Breaks State Park
(34.1132°N, 99.7492°W)
Time: 01:33:27
(UTC-05:00)

Amateur Radio Satellites - All Passes

Search period start: 01 July 2015 01:03
Search period end: 02 July 2015 01:03
Location: Copper Breaks State Park, 34.1132°N, 99.7492°W

Satellite Date Start Highest point End Downlink Frequencies (MHz)
Time Altitude Azimuth
TISAT 1 01 Jul 01:04:47 01:08:50 45° 74° (ENE) 01:12:54 437.305
Cosmos 2499 01 Jul 01:19:23 01:24:49 19° 274° (W) 01:30:00 435.465 / 435.565
ANTELSAT 01 Jul 01:23:57 01:26:40 16° 290° (WNW) 01:29:13 437.575/2403.000
SWISSCUBE 01 Jul 01:28:25 01:31:00 15° 67° (ENE) 01:33:47 437.505
ITUPSAT 1 01 Jul 01:31:49 01:34:18 15° 67° (ENE) 01:37:00 437.325
QB50P2 01 Jul 01:33:52 01:37:24 26° 288° (WNW) 01:40:53 145.880/145.840
POPSAT HIP 1 01 Jul 01:35:41 01:39:12 26° 288° (WNW) 01:42:39 437.405
BUGSAT 1 01 Jul 01:38:56 01:42:40 35° 287° (WNW) 01:46:19 437.445
TIGRISAT 01 Jul 01:39:24 01:40:49 11° 292° (WNW) 01:41:59 435.000
SPROUT 01 Jul 01:42:38 01:46:41 38° 262° (W) 01:50:43 437.525
RS-15 01 Jul 01:57:12 02:03:33 19° 103° (ESE) 02:10:44 29.354- 29.394
PCSat 01 Jul 02:11:26 02:15:53 26° 54° (NE) 02:20:24 145.827
Cosmos 2491 01 Jul 02:16:02 02:20:26 15° 63° (ENE) 02:25:28 435.465 / 435.565
TISAT 1 01 Jul 02:43:10 02:44:53 12° 269° (W) 02:46:21 437.305
BEESAT 01 Jul 02:48:43 02:53:29 79° 259° (W) 02:58:17 436.000
STARS 01 Jul 02:59:45 03:01:02 11° 67° (ENE) 03:02:35 437.465
Oscar 19 01 Jul 03:02:43 03:07:50 73° 101° (ESE) 03:12:57 437.125/150
SWISSCUBE 01 Jul 03:03:52 03:08:29 48° 261° (W) 03:13:07 437.505
ITAMSAT 1 01 Jul 03:06:34 03:10:08 19° 93° (E) 03:13:53 435.822/435.867
ITUPSAT 1 01 Jul 03:07:09 03:11:48 50° 260° (W) 03:16:28 437.325
KKS-1 01 Jul 03:30:52 03:35:06 45° 74° (ENE) 03:39:23 437.445
JAS-2 01 Jul 03:43:46 03:47:28 16° 91° (E) 03:51:49 435.910
SO-50 01 Jul 03:50:19 03:55:15 66° 59° (ENE) 04:00:04 436.795
PCSat 01 Jul 03:54:25 03:59:24 37° 250° (WSW) 04:04:18 145.827
RS-15 01 Jul 04:03:48 04:14:42 87° 299° (WNW) 04:25:56 29.354- 29.394
AO-7 01 Jul 04:08:24 04:12:36 15° 90° (E) 04:17:27 29.400- 29.500
Cosmos 2491 01 Jul 04:09:57 04:18:45 90° 263° (W) 04:27:27 435.465 / 435.565
Gurwin Techsat 1B 01 Jul 04:15:27 04:20:48 80° 285° (WNW) 04:26:06 435.225
HORYU 2 01 Jul 04:27:21 04:29:54 15° 92° (E) 04:32:39 437.375
STARS 01 Jul 04:32:44 04:37:04 55° 260° (W) 04:41:24 437.465
AIST 1 01 Jul 04:35:24 04:39:45 68° 265° (W) 04:44:01
YUBILEINY 01 Jul 04:40:10 04:48:48 73° 94° (E) 04:57:28 435.215
Oscar 19 01 Jul 04:44:51 04:46:40 11° 295° (WNW) 04:48:09 437.125/150
ITAMSAT 1 01 Jul 04:44:56 04:49:51 42° 288° (WNW) 04:54:42 435.822/435.867
MOZHAYETS 4 01 Jul 04:56:25 05:00:32 35° 73° (ENE) 05:04:44
KKS-1 01 Jul 05:09:49 05:12:02 13° 269° (W) 05:13:59 437.445
JAS-2 01 Jul 05:26:25 05:32:59 77° 284° (WNW) 05:40:20 435.910
SO-50 01 Jul 05:33:24 05:35:17 12° 252° (WSW) 05:36:51 436.795
Cosmos 2504 01 Jul 05:45:31 05:48:56 15° 84° (E) 05:52:50 435.465 / 435.565
AO-7 01 Jul 05:58:05 06:06:31 87° 286° (WNW) 06:14:52 29.400- 29.500
HORYU 2 01 Jul 06:02:34 06:06:44 39° 287° (WNW) 06:10:51 437.375
Cosmos 2491 01 Jul 06:10:11 06:14:35 14° 279° (W) 06:18:17 435.465 / 435.565
RS-15 01 Jul 06:20:26 06:29:03 24° 324° (NW) 06:37:33 29.354- 29.394
MOZHAYETS 4 01 Jul 06:34:46 06:37:54 18° 268° (W) 06:40:53
YUBILEINY 01 Jul 06:40:24 06:46:36 20° 293° (WNW) 06:52:22 435.215
CUBESAT XI-V 01 Jul 06:48:55 06:53:23 46° 75° (ENE) 06:57:55 437.345
CUTE-I 01 Jul 06:52:53 06:56:14 17° 92° (E) 06:59:49 437.470
PRISM 01 Jul 07:06:40 07:09:42 21° 70° (ENE) 07:12:53 437.425
JAS-2 01 Jul 07:15:29 07:17:28 11° 296° (WNW) 07:18:58 435.910
Cubesat XI-IV 01 Jul 07:24:41 07:29:36 37° 97° (E) 07:34:33 437.490
Cosmos 2504 01 Jul 07:34:22 07:41:41 73° 278° (W) 07:48:50 435.465 / 435.565
STRAND 1 01 Jul 07:49:26 07:54:33 73° 75° (ENE) 07:59:42 437.568
AO-7 01 Jul 07:53:11 07:58:19 17° 303° (WNW) 08:03:01 29.400- 29.500
O/OREOS (USA 219) 01 Jul 08:06:59 08:10:09 20° 102° (ESE) 08:13:28 437.305
CUSAT 1 01 Jul 08:15:30 08:21:03 25° 94° (E) 08:25:56 437.405
M-CUBED/EXP-1 PRIME 01 Jul 08:26:57 08:28:55 16° 66° (ENE) 08:31:01 437.505
CUBESAT XI-V 01 Jul 08:28:31 08:31:08 14° 269° (W) 08:33:30 437.345
CUTE-I 01 Jul 08:31:27 08:36:38 48° 287° (WNW) 08:41:44 437.470
VERMONT LUNAR 01 Jul 08:32:37 08:34:47 18° 145° (SE) 08:37:00 437.305
BEESAT 3 01 Jul 08:40:29 08:44:26 56° 116° (ESE) 08:48:27 437.485
PRISM 01 Jul 08:41:31 08:45:01 26° 264° (W) 08:48:30 437.425
RS-15 01 Jul 08:44:58 08:47:39 11° 359° (N) 08:50:20 29.354- 29.394
BEESAT 2 01 Jul 08:47:21 08:51:18 51° 116° (ESE) 08:55:19 435.950
DANDE 01 Jul 08:51:26 08:58:43 41° 95° (E) 09:04:47 436.750
Cubesat XI-IV 01 Jul 09:05:15 09:09:31 24° 292° (WNW) 09:13:37 437.490
GONETS M04 01 Jul 09:17:41 09:24:28 27° 86° (E) 09:31:33
CUTE 1.7 + AOD 2 01 Jul 09:18:01 09:20:22 15° 92° (E) 09:22:56 437.475
CANX-2 01 Jul 09:20:22 09:23:13 18° 93° (E) 09:26:15 2200.000
ISS 01 Jul 09:23:52 09:26:51 35° 132° (SE) 09:29:52 145.825
AUBIESAT-1 01 Jul 09:29:30 09:32:47 72° 253° (WSW) 09:36:07 437.475
GOMX 1 01 Jul 09:29:51 09:33:47 39° 98° (E) 09:37:40 467.674
STRAND 1 01 Jul 09:33:34 09:34:22 10° 271° (W) 09:34:45 437.568
BRITE-PL 01 Jul 09:35:22 09:39:44 86° 102° (ESE) 09:43:53 437.365/2234.400
PHONESAT 2.4 01 Jul 09:35:51 09:36:36 11° 141° (SE) 09:37:29 2401.200-2431.200
AIST 2 01 Jul 09:41:18 09:45:22 47° 115° (ESE) 09:49:30 435.215
O/OREOS (USA 219) 01 Jul 09:45:29 09:49:25 29° 296° (WNW) 09:53:19 437.305
CUSAT 1 01 Jul 09:56:43 10:03:38 44° 280° (W) 10:09:04 437.405
M-CUBED/EXP-1 PRIME 01 Jul 10:01:09 10:03:41 20° 260° (W) 10:06:08 437.505
CINEMA 3 01 Jul 10:07:26 10:10:56 27° 96° (E) 10:14:34 145.822/145.860
VERMONT LUNAR 01 Jul 10:08:23 10:11:30 68° 338° (NNW) 10:14:38 437.305
SEEDS 01 Jul 10:10:50 10:15:00 53° 99° (E) 10:19:11 437.485
HO-68 01 Jul 10:13:26 10:20:34 69° 103° (ESE) 10:27:42 435.675
Oscar 11 01 Jul 10:20:00 10:22:59 19° 93° (E) 10:26:07 145.826/435.025
BEESAT 3 01 Jul 10:20:56 10:22:47 12° 313° (NW) 10:24:29 437.485
BEESAT 2 01 Jul 10:27:34 10:29:43 13° 312° (NW) 10:31:43 435.950
AAUSAT CUBESAT 2 01 Jul 10:31:13 10:35:24 62° 101° (E) 10:39:35 437.432
DOVE 4 01 Jul 10:31:42 10:35:48 58° 284° (WNW) 10:39:52 437.250
DANDE 01 Jul 10:34:59 10:41:54 32° 283° (WNW) 10:47:30 436.750
FUNcube-1 01 Jul 10:40:46 10:43:30 17° 93° (E) 10:46:26 145.935
ANTELSAT 01 Jul 10:42:16 10:45:31 22° 71° (ENE) 10:48:51 437.575/2403.000
UWE-3 01 Jul 10:42:44 10:46:11 25° 96° (E) 10:49:46 435.000/436.395/437.385
QB50P2 01 Jul 10:50:28 10:50:56 10° 67° (ENE) 10:51:41 145.880/145.840
POPSAT HIP 1 01 Jul 10:52:02 10:52:37 10° 67° (ENE) 10:53:28 437.405
CUTE 1.7 + AOD 2 01 Jul 10:52:30 10:56:27 36° 286° (WNW) 11:00:23 437.475
COMPASS 1 01 Jul 10:54:10 10:58:19 55° 284° (WNW) 11:02:26 437.405
CANX-2 01 Jul 10:55:27 10:59:13 30° 287° (WNW) 11:02:57 2200.000
TIGRISAT 01 Jul 10:55:46 10:59:31 30° 73° (ENE) 11:03:16 435.000
RS-15 01 Jul 10:58:03 11:06:31 23° 34° (NE) 11:15:41 29.354- 29.394
ISS 01 Jul 11:00:54 11:03:21 19° 327° (NNW) 11:05:45 145.825
GOMX 1 01 Jul 11:09:31 11:11:38 13° 292° (WNW) 11:13:31 467.674
PHONESAT 2.4 01 Jul 11:10:49 11:14:14 69° 153° (SSE) 11:17:41 2401.200-2431.200
DELFI C3 01 Jul 11:12:02 11:16:02 54° 99° (E) 11:20:01 145.870
GONETS M04 01 Jul 11:12:14 11:20:52 56° 281° (WNW) 11:29:25
CUBEBUG 2 01 Jul 11:19:48 11:24:00 85° 283° (WNW) 11:28:16 437.445
AIST 2 01 Jul 11:21:39 11:24:14 15° 312° (NW) 11:26:42 435.215
DX 1 01 Jul 11:26:00 11:29:11 20° 95° (E) 11:32:29 434.975-435.025
QB50P1 01 Jul 11:28:12 11:31:52 29° 72° (ENE) 11:35:34 145.935-145.965
UNISAT 6 01 Jul 11:33:16 11:37:37 90° 253° (WSW) 11:41:55 437.425
ZACube-1 01 Jul 11:37:57 11:42:10 87° 283° (WNW) 11:46:27 437.345
50 SAT 01 Jul 11:40:31 11:43:01 17° 94° (E) 11:45:40 437.505
NANOSAT C BR1 01 Jul 11:43:27 11:47:29 44° 74° (ENE) 11:51:32 145.865
CINEMA 3 01 Jul 11:45:01 11:48:02 19° 289° (WNW) 11:50:57 145.822/145.860
VERMONT LUNAR 01 Jul 11:46:03 11:48:45 26° 354° (N) 11:51:29 437.305
AISAT 01 Jul 11:48:28 11:51:41 20° 94° (E) 11:55:01 437.250
SEEDS 01 Jul 11:49:08 11:50:23 11° 292° (WNW) 11:51:23 437.485
DUCHIFAT 1 01 Jul 11:51:34 11:55:42 54° 75° (ENE) 11:59:50 145.980
UKube-1 01 Jul 11:51:48 11:55:50 37° 98° (E) 11:59:51 .
POLYITAN 1 01 Jul 11:51:55 11:56:05 58° 76° (ENE) 12:00:16 437.675
Oscar 11 01 Jul 11:55:24 11:59:14 30° 287° (WNW) 12:03:00 145.826/435.025
Cosmos 2499 01 Jul 11:57:14 12:04:12 61° 93° (E) 12:11:08 435.465 / 435.565
HO-68 01 Jul 12:02:43 12:07:44 20° 298° (WNW) 12:12:26 435.675
ESTCUBE 1 01 Jul 12:07:21 12:10:44 21° 94° (E) 12:14:14 437.505/2401.250
FUNcube-1 01 Jul 12:16:12 12:19:54 30° 287° (WNW) 12:23:37 145.935
CUBEBUG 1 01 Jul 12:17:43 12:21:05 22° 95° (E) 12:24:33 437.445
ANTELSAT 01 Jul 12:18:33 12:22:13 25° 264° (W) 12:25:45 437.575/2403.000
UWE-3 01 Jul 12:19:23 12:22:38 21° 288° (WNW) 12:25:49 435.000/436.395/437.385
QB50P2 01 Jul 12:22:12 12:26:24 57° 259° (W) 12:30:35 145.880/145.840
POPSAT HIP 1 01 Jul 12:23:52 12:28:04 56° 260° (W) 12:32:15 437.405
BUGSAT 1 01 Jul 12:24:25 12:28:40 90° 85° (E) 12:32:55 437.445
HUMSAT D 01 Jul 12:26:31 12:30:34 54° 285° (WNW) 12:34:39 437.325/437.525
TIGRISAT 01 Jul 12:33:15 12:36:20 18° 266° (W) 12:39:14 435.000
VELOX 1 01 Jul 12:38:02 12:42:28 78° 102° (ESE) 12:46:51 145.980
PHONESAT 2.4 01 Jul 12:49:15 12:52:26 33° 349° (NNW) 12:55:38 2401.200-2431.200
DX 1 01 Jul 13:01:43 13:05:27 28° 288° (WNW) 13:09:06 434.975-435.025
QB50P1 01 Jul 13:04:41 13:07:45 19° 266° (W) 13:10:41 145.935-145.965
RS-15 01 Jul 13:09:31 13:21:21 78° 60° (ENE) 13:33:37 29.354- 29.394
50 SAT 01 Jul 13:14:21 13:17:41 26° 287° (WNW) 13:20:57 437.505
NANOSAT C BR1 01 Jul 13:21:45 13:23:35 12° 269° (W) 13:25:10 145.865
VERMONT LUNAR 01 Jul 13:23:22 13:26:13 29° 11° (N) 13:29:05 437.305
AISAT 01 Jul 13:24:29 13:28:18 29° 288° (WNW) 13:32:02 437.250
UKube-1 01 Jul 13:29:02 13:31:41 16° 291° (WNW) 13:34:10 .
SPROUT 01 Jul 13:32:47 13:36:54 46° 99° (E) 13:41:00 437.525
ESTCUBE 1 01 Jul 13:43:40 13:47:38 29° 288° (WNW) 13:51:30 437.505/2401.250
Cosmos 2499 01 Jul 13:53:05 13:57:58 19° 291° (WNW) 14:02:30 435.465 / 435.565
CUBEBUG 1 01 Jul 13:53:47 13:57:25 25° 289° (WNW) 14:00:56 437.445
Gurwin Techsat 1B 01 Jul 13:56:46 13:58:36 12° 65° (ENE) 14:00:45 435.225
Oscar 19 01 Jul 14:15:44 14:20:51 72° 76° (ENE) 14:25:59 437.125/150
ITAMSAT 1 01 Jul 14:21:05 14:24:50 21° 68° (ENE) 14:28:45 435.822/435.867
PHONESAT 2.4 01 Jul 14:27:55 14:30:58 28° 5° (N) 14:34:04 2401.200-2431.200
TISAT 1 01 Jul 14:28:25 14:32:31 55° 285° (WNW) 14:36:34 437.305
BEESAT 01 Jul 14:52:58 14:57:21 35° 97° (E) 15:01:45 436.000
YUBILEINY 01 Jul 14:55:41 15:02:57 30° 72° (ENE) 15:10:29 435.215
VERMONT LUNAR 01 Jul 15:00:10 15:03:21 75° 205° (SSW) 15:06:33 437.305
AO-7 01 Jul 15:04:05 15:08:56 18° 57° (ENE) 15:14:14 29.400- 29.500
SWISSCUBE 01 Jul 15:07:46 15:12:30 57° 101° (E) 15:17:13 437.505
SPROUT 01 Jul 15:10:40 15:12:37 13° 292° (WNW) 15:14:21 437.525
ITUPSAT 1 01 Jul 15:11:22 15:16:06 56° 100° (E) 15:20:49 437.325
Cosmos 2491 01 Jul 15:12:45 15:18:29 21° 83° (E) 15:24:41 435.465 / 435.565
RS-15 01 Jul 15:23:44 15:32:59 26° 255° (WSW) 15:41:48 29.354- 29.394
KKS-1 01 Jul 15:27:55 15:29:19 12° 91° (E) 15:31:01 437.445
Gurwin Techsat 1B 01 Jul 15:32:44 15:38:02 74° 258° (WSW) 15:43:22 435.225
JAS-2 01 Jul 15:37:00 15:41:10 26° 69° (ENE) 15:45:31 435.910
ISS 01 Jul 15:55:32 15:56:40 11° 27° (NNE) 15:57:53 145.825
ITAMSAT 1 01 Jul 15:59:12 16:04:05 40° 262° (W) 16:08:59 435.822/435.867
Oscar 19 01 Jul 15:59:51 16:00:48 10° 271° (W) 16:01:21 437.125/150
PHONESAT 2.4 01 Jul 16:05:53 16:09:21 68° 22° (NNE) 16:12:51 2401.200-2431.200
STARS 01 Jul 16:26:19 16:30:17 34° 97° (E) 16:34:17 437.465
BEESAT 01 Jul 16:31:26 16:34:58 20° 291° (WNW) 16:38:23 436.000
VERMONT LUNAR 01 Jul 16:39:01 16:39:57 11° 218° (SW) 16:40:47 437.305
SWISSCUBE 01 Jul 16:47:37 16:49:55 13° 294° (WNW) 16:51:57 437.505
PCSat 01 Jul 16:48:45 16:53:54 48° 112° (ESE) 16:59:07 145.827
ITUPSAT 1 01 Jul 16:51:09 16:53:34 13° 293° (WNW) 16:55:44 437.325
YUBILEINY 01 Jul 16:51:46 17:00:09 52° 269° (W) 17:08:30 435.215
AO-7 01 Jul 16:52:26 17:00:47 90° 75° (ENE) 17:09:13 29.400- 29.500
HORYU 2 01 Jul 16:56:39 17:01:03 68° 258° (WSW) 17:05:27 437.375
MOZHAYETS 4 01 Jul 16:57:28 16:58:46 11° 90° (E) 17:00:23
AIST 1 01 Jul 17:00:28 17:04:51 84° 96° (E) 17:09:16
KKS-1 01 Jul 17:02:01 17:06:18 49° 286° (WNW) 17:10:34 437.445
BEESAT 3 01 Jul 17:04:15 17:05:49 12° 47° (NE) 17:07:33 437.485
Cosmos 2491 01 Jul 17:05:49 17:14:38 71° 279° (W) 17:23:26 435.465 / 435.565
BEESAT 2 01 Jul 17:11:50 17:13:12 12° 46° (NE) 17:14:45 435.950
JAS-2 01 Jul 17:21:49 17:26:18 28° 265° (W) 17:30:42 435.910
ISS 01 Jul 17:30:16 17:33:31 89° 208° (SSW) 17:36:44 145.825
Cosmos 2504 01 Jul 17:30:25 17:37:03 32° 74° (ENE) 17:44:15 435.465 / 435.565
PHONESAT 2.4 01 Jul 17:44:27 17:47:11 21° 215° (SW) 17:49:53 2401.200-2431.200
SO-50 01 Jul 18:00:57 18:05:27 50° 115° (ESE) 18:10:07 436.795
STARS 01 Jul 18:03:34 18:06:30 17° 291° (WNW) 18:09:17 437.465
AIST 2 01 Jul 18:08:19 18:09:52 12° 46° (NE) 18:11:35 435.215
CUTE-I 01 Jul 18:11:08 18:14:57 21° 68° (ENE) 18:18:57 437.470
O/OREOS (USA 219) 01 Jul 18:19:56 18:23:24 22° 61° (ENE) 18:27:00 437.305
JUGNU 01 Jul 18:29:08 18:32:34 16° 170° (S) 18:36:03 437.505
MOZHAYETS 4 01 Jul 18:31:50 18:36:24 56° 285° (WNW) 18:40:56
PCSat 01 Jul 18:33:31 18:37:37 21° 308° (NW) 18:41:36 145.827
BEESAT 3 01 Jul 18:40:13 18:44:11 55° 244° (WSW) 18:48:03 437.485
Cubesat XI-IV 01 Jul 18:42:57 18:47:57 43° 72° (ENE) 18:53:02 437.490
BEESAT 2 01 Jul 18:47:42 18:51:43 59° 244° (WSW) 18:55:38 435.950
AO-7 01 Jul 18:50:09 18:54:44 15° 270° (W) 18:58:40 29.400- 29.500
CUBESAT XI-V 01 Jul 18:50:44 18:53:26 16° 91° (E) 18:56:20 437.345
Cosmos 2491 01 Jul 19:11:18 19:13:30 11° 300° (WNW) 19:14:49 435.465 / 435.565
SRMSAT 01 Jul 19:16:47 19:18:21 11° 165° (SSE) 19:20:03 437.500
Cosmos 2504 01 Jul 19:23:18 19:30:35 44° 269° (W) 19:38:15 435.465 / 435.565
SO-50 01 Jul 19:43:02 19:46:20 18° 313° (NW) 19:49:34 436.795
AIST 2 01 Jul 19:44:46 19:48:54 61° 244° (WSW) 19:52:56 435.215
CUTE-I 01 Jul 19:49:41 19:54:45 42° 261° (W) 19:59:50 437.470
O/OREOS (USA 219) 01 Jul 19:58:56 20:02:51 28° 256° (WSW) 20:06:42 437.305
STRAND 1 01 Jul 20:04:11 20:08:46 33° 97° (E) 20:13:24 437.568
JUGNU 01 Jul 20:16:43 20:20:57 20° 179° (S) 20:25:10 437.505
Cubesat XI-IV 01 Jul 20:24:20 20:28:17 20° 267° (W) 20:32:02 437.490
CUBESAT XI-V 01 Jul 20:26:41 20:31:07 41° 286° (WNW) 20:35:27 437.345
PRISM 01 Jul 20:26:41 20:30:49 55° 100° (E) 20:34:54 437.425
GOMX 1 01 Jul 20:33:34 20:38:14 34° 73° (ENE) 20:42:46 467.674
HO-68 01 Jul 20:38:18 20:44:34 35° 67° (ENE) 20:50:57 435.675
CUSAT 1 01 Jul 20:39:47 20:42:24 58° 262° (W) 20:44:57 437.405
BRITE-PL 01 Jul 20:40:56 20:46:30 69° 76° (ENE) 20:51:50 437.365/2234.400
SEEDS 01 Jul 20:59:52 21:03:05 23° 72° (ENE) 21:06:25 437.485
SRMSAT 01 Jul 21:02:55 21:06:51 18° 174° (S) 21:10:48 437.500
CINEMA 3 01 Jul 21:06:15 21:09:19 18° 71° (ENE) 21:12:26 145.822/145.860
AUBIESAT-1 01 Jul 21:14:30 21:15:50 11° 97° (E) 21:17:27 437.475
AAUSAT CUBESAT 2 01 Jul 21:18:48 21:22:09 25° 72° (ENE) 21:25:35 437.432
DANDE 01 Jul 21:22:23 21:24:31 20° 268° (W) 21:26:29 436.750
GONETS M04 01 Jul 21:26:58 21:35:34 63° 80° (E) 21:44:09
DOVE 4 01 Jul 21:32:38 21:37:41 87° 80° (E) 21:42:29 437.250
UWE-3 01 Jul 21:37:50 21:39:55 14° 70° (ENE) 21:42:11 435.000/436.395/437.385
CUTE 1.7 + AOD 2 01 Jul 21:41:05 21:45:17 86° 261° (W) 21:49:30 437.475
COMPASS 1 01 Jul 21:41:22 21:45:25 58° 76° (ENE) 21:49:31 437.405
M-CUBED/EXP-1 PRIME 01 Jul 21:43:34 21:47:19 31° 102° (ESE) 21:51:21 437.505
STRAND 1 01 Jul 21:43:40 21:47:50 24° 291° (WNW) 21:51:51 437.568
CANX-2 01 Jul 21:43:59 21:48:10 70° 259° (W) 21:52:22 2200.000
Cosmos 2499 01 Jul 21:53:05 21:57:37 17° 68° (ENE) 22:02:51 435.465 / 435.565
DELFI C3 01 Jul 21:56:26 21:59:18 20° 71° (ENE) 22:02:18 145.870
PRISM 01 Jul 22:05:04 22:05:49 10° 293° (WNW) 22:06:18 437.425
JUGNU 01 Jul 22:05:39 22:09:19 17° 189° (S) 22:12:55 437.505
GOMX 1 01 Jul 22:12:04 22:16:23 24° 265° (W) 22:20:23 467.674
CUBEBUG 2 01 Jul 22:14:19 22:18:32 49° 75° (ENE) 22:22:40 437.445
DX 1 01 Jul 22:19:42 22:21:17 12° 67° (ENE) 22:23:07 434.975-435.025
BRITE-PL 01 Jul 22:22:48 22:25:26 13° 270° (W) 22:27:39 437.365/2234.400
HO-68 01 Jul 22:25:38 22:32:14 38° 262° (W) 22:38:45 435.675
ZACube-1 01 Jul 22:30:18 22:34:21 44° 75° (ENE) 22:38:21 437.345
SEEDS 01 Jul 22:35:27 22:38:49 23° 265° (W) 22:42:05 437.485
CINEMA 3 01 Jul 22:42:04 22:46:20 34° 262° (W) 22:50:23 145.822/145.860
UKube-1 01 Jul 22:43:38 22:46:49 21° 70° (ENE) 22:50:08 .
AISAT 01 Jul 22:44:08 22:45:58 13° 67° (ENE) 22:48:02 437.250
Oscar 11 01 Jul 22:45:47 22:50:02 63° 259° (W) 22:54:19 145.826/435.025
AUBIESAT-1 01 Jul 22:46:39 22:50:46 54° 289° (WNW) 22:55:10 437.475
SRMSAT 01 Jul 22:51:15 22:55:22 19° 184° (S) 22:59:27 437.500
AAUSAT CUBESAT 2 01 Jul 22:54:37 22:57:44 20° 266° (W) 23:00:46 437.432
ESTCUBE 1 01 Jul 23:04:47 23:06:50 13° 68° (ENE) 23:09:08 437.505/2401.250
FUNcube-1 01 Jul 23:07:40 23:11:54 64° 260° (W) 23:16:03 145.935
CUBEBUG 1 01 Jul 23:11:41 23:13:37 13° 68° (ENE) 23:15:46 437.445
UWE-3 01 Jul 23:12:04 23:16:10 41° 261° (W) 23:20:10 435.000/436.395/437.385
HUMSAT D 01 Jul 23:14:19 23:18:23 61° 76° (ENE) 23:22:25 437.325/437.525
M-CUBED/EXP-1 PRIME 01 Jul 23:18:47 23:21:59 21° 293° (WNW) 23:25:13 437.505
GONETS M04 01 Jul 23:25:17 23:31:48 23° 276° (W) 23:37:54
UNISAT 6 01 Jul 23:29:13 23:32:45 24° 95° (E) 23:36:26 437.425
DELFI C3 01 Jul 23:30:58 23:34:16 24° 265° (W) 23:37:31 145.870
VELOX 1 01 Jul 23:31:50 23:36:02 43° 74° (ENE) 23:40:17 145.980
DUCHIFAT 1 01 Jul 23:42:19 23:43:30 11° 91° (E) 23:44:58 145.980
POLYITAN 1 01 Jul 23:42:58 23:44:40 13° 91° (E) 23:46:37 437.675
Cosmos 2499 01 Jul 23:43:46 23:51:39 80° 264° (W) 00:00:07 435.465 / 435.565
DX 1 01 Jul 23:52:52 23:57:08 52° 260° (W) 00:01:26 434.975-435.025
50 SAT 01 Jul 23:54:03 23:57:53 85° 257° (WSW) 00:01:44 437.505
CUBEBUG 2 01 Jul 23:54:08 23:55:32 11° 269° (W) 23:56:37 437.445
ZACube-1 02 Jul 00:09:14 00:10:58 12° 269° (W) 00:12:27 437.345
QB50P2 02 Jul 00:11:32 00:15:11 29° 96° (E) 00:18:54 145.880/145.840
BUGSAT 1 02 Jul 00:11:41 00:14:12 16° 93° (E) 00:16:51 437.445
ANTELSAT 02 Jul 00:12:59 00:17:23 83° 102° (ESE) 00:21:52 437.575/2403.000
POPSAT HIP 1 02 Jul 00:13:03 00:16:43 29° 97° (E) 00:20:24 437.405
AISAT 02 Jul 00:17:47 00:22:09 51° 260° (W) 00:26:31 437.250
UKube-1 02 Jul 00:19:03 00:22:49 28° 263° (W) 00:26:31 .
SPROUT 02 Jul 00:23:50 00:27:10 23° 71° (ENE) 00:30:36 437.525
TIGRISAT 02 Jul 00:26:47 00:31:07 70° 284° (WNW) 00:35:33 435.000
ESTCUBE 1 02 Jul 00:38:56 00:43:19 49° 261° (W) 00:47:44 437.505/2401.250
SRMSAT 02 Jul 00:41:09 00:43:52 13° 193° (SSW) 00:46:29 437.500
CUBEBUG 1 02 Jul 00:45:18 00:49:36 49° 261° (W) 00:53:55 437.445
QB50P1 02 Jul 00:52:00 00:56:13 87° 280° (W) 01:00:25 145.935-145.965
